Location: Ostrava
(49.8330°N, 18.2830°E)
Time: 01:07:29
(UTC+02:00)

Cosmos 1400 Rocket - Visible Passes

Search period start: 25 October 2014 00:00
Search period end: 03 November 2014 23:00
Orbit: 530 x 579 km, 81.2° (Epoch: 23 October)

Date Brightness Start Highest point End Pass type
(mag) Time Alt. Az. Time Alt. Az. Time Alt. Az.
25 Oct 5.9 03:59:09 10° NNE 04:01:17 14° ENE 04:03:23 10° E visible
25 Oct 2.7 05:34:26 10° NNW 05:38:30 71° W 05:42:29 10° S visible
25 Oct 5.0 19:36:37 10° SW 19:40:15 28° WNW 19:43:54 10° N visible
26 Oct 5.8 02:56:02 10° NNE 02:58:29 15° ENE 03:00:54 10° E visible
26 Oct 2.7 04:31:35 10° NNW 04:35:37 62° W 04:39:33 10° S visible
26 Oct 5.2 18:33:55 10° SW 18:37:25 25° WNW 18:40:55 10° N visible
27 Oct 5.6 02:55:16 17° NE 02:55:40 17° ENE 02:58:20 10° ESE visible
27 Oct 2.8 04:31:24 36° NW 04:32:43 53° W 04:36:36 10° S visible
27 Oct 5.4 18:31:15 10° WSW 18:34:35 23° WNW 18:37:55 10° NNW visible
28 Oct 4.4 04:32:08 21° SSW 04:32:08 21° SSW 04:33:37 10° S visible
28 Oct 5.6 18:28:37 10° WSW 18:31:45 20° WNW 18:34:54 10° NNW visible
29 Oct 5.7 18:25:59 10° WSW 18:28:55 18° WNW 18:31:50 10° NNW visible
30 Oct 5.8 18:23:24 10° WSW 18:26:04 16° WNW 18:28:45 10° NNW visible
31 Oct 5.9 18:20:52 10° W 18:23:14 15° WNW 18:25:36 10° NNW visible
01 Nov 5.9 18:18:23 10° W 18:20:23 13° WNW 18:22:24 10° NNW visible
02 Nov 6.0 18:16:01 10° W 18:17:33 12° WNW 18:19:05 10° NW visible
03 Nov 6.2 18:13:56 10° WNW 18:14:42 10° WNW 18:15:28 10° NW visible
